Weather History for Salt Lake City, UT

Change the Weather History Date:

Thursday, April 10, 2014

  Actual Average Record
Temperature  
Mean Temperature 57 °F 49 °F  
Max Temperature 70 °F 60 °F 81 °F (2012)
Min Temperature 44 °F 38 °F 19 °F (1933)
Degree Days  
Heating Degree Days 8 16  
Month to date heating degree days 124 169  
Since 1 July heating degree days 4598 5087  
Cooling Degree Days 0 0  
Month to date cooling degree days 0 0  
Year to date cooling degree days 0 0  
Growing Degree Days 7 (Base 50)    
Moisture  
Dew Point 35 °F    
Average Humidity 56    
Maximum Humidity 86    
Minimum Humidity 26    
Precipitation  
Precipitation 0.00 in 0.07 in 1.54 in (1974)
Month to date precipitation 0.21 0.66  
Year to date precipitation 4.09 4.95  
Snow  
Snow 0.00 in 0.10 in 11.80 in (1974)
Month to date snowfall T 1.8  
Since 1 July snowfall 35.5 53.7  
Snow Depth 0.00 in    
Sea Level Pressure  
Sea Level Pressure 29.96 in    
Wind  
Wind Speed 6 mph (NE)    
Max Wind Speed 15 mph    
Max Gust Speed 21 mph    
Visibility 10 miles    
Events      
T = Trace of Precipitation, MM = Missing Value Source: NWS Daily Summary

Daily Weather History Graph

Daily Weather History Graph

Search for Another Location

Airport:

Trip Planner

Search our weather history database for the weather conditions in past years. The results will help you decide how hot, cold, wet, or windy it might be!

Date:

Astronomy

Apr. 10, 2014 Rise Set
Actual Time 6:56 AM MDT 8:02 PM MDT
Civil Twilight 6:28 AM MDT 8:30 PM MDT
Nautical Twilight 5:55 AM MDT 9:03 PM MDT
Astronomical Twilight 5:20 AM MDT 9:39 PM MDT
Moon 3:48 PM MDT (4/10) 4:23 AM MDT (4/10)
Length of Visible Light 14h 01m
Length of Day
13h 05m
Waxing Gibbous, 80% of the Moon is Illuminated
Apr 10
Waxing Gibbous
Apr 15
Full
Apr 22
Last Quarter
Apr 29
New
May 6
First Quarter

Hourly Weather History & Observations

Time (MDT) Temp. Windchill Dew Point Humidity Pressure Visibility Wind Dir Wind Speed Gust Speed Precip Events Conditions
12:53 AM 51.1 °F - 39.0 °F 63% 29.87 in 10.0 mi SW 8.1 mph - N/A   Mostly Cloudy
1:53 AM 53.1 °F - 35.1 °F 50% 29.90 in 10.0 mi ENE 3.5 mph - N/A   Partly Cloudy
2:53 AM 48.0 °F - 44.1 °F 86% 29.93 in 10.0 mi WNW 4.6 mph - N/A   Partly Cloudy
3:53 AM 48.0 °F - 44.1 °F 86% 29.94 in 10.0 mi Calm Calm - N/A   Partly Cloudy
4:53 AM 46.9 °F - 43.0 °F 86% 29.95 in 10.0 mi SSE 3.5 mph - N/A   Clear
5:53 AM 46.9 °F - 33.1 °F 59% 29.95 in 10.0 mi SSE 5.8 mph - N/A   Clear
6:53 AM 45.0 °F 40.6 °F 35.1 °F 68% 29.96 in 10.0 mi SSE 8.1 mph - N/A   Partly Cloudy
7:53 AM 48.9 °F - 36.0 °F 61% 29.99 in 10.0 mi ESE 6.9 mph - N/A   Partly Cloudy
8:53 AM 55.9 °F - 37.0 °F 49% 29.98 in 10.0 mi SSE 5.8 mph - N/A   Partly Cloudy
9:53 AM 61.0 °F - 35.1 °F 38% 29.99 in 10.0 mi Calm Calm - N/A   Partly Cloudy
10:53 AM 63.0 °F - 33.1 °F 33% 30.00 in 10.0 mi Calm Calm - N/A   Partly Cloudy
11:53 AM 64.9 °F - 35.1 °F 33% 30.00 in 10.0 mi NNE 9.2 mph - N/A   Scattered Clouds
12:53 PM 66.0 °F - 35.1 °F 32% 30.00 in 10.0 mi Variable 5.8 mph - N/A   Scattered Clouds
1:53 PM 66.9 °F - 33.1 °F 28% 29.99 in 10.0 mi WNW 9.2 mph 20.7 mph N/A   Scattered Clouds
2:53 PM 68.0 °F - 33.1 °F 27% 30.00 in 10.0 mi NNW 8.1 mph - N/A   Scattered Clouds
3:53 PM 69.1 °F - 33.1 °F 26% 29.98 in 10.0 mi NW 10.4 mph - N/A   Partly Cloudy
4:53 PM 69.1 °F - 33.1 °F 26% 29.97 in 10.0 mi North 9.2 mph - N/A   Partly Cloudy
5:50 PM 68.0 °F - 32.0 °F 26% 30.05 in 10.0 mi NNE 8.1 mph - N/A   Partly Cloudy
5:53 PM 69.1 °F - 32.0 °F 25% 29.96 in 10.0 mi NNE 11.5 mph - N/A   Partly Cloudy
6:53 PM 66.9 °F - 28.9 °F 24% 29.95 in 10.0 mi North 6.9 mph - N/A   Partly Cloudy
7:53 PM 63.0 °F - 33.1 °F 33% 29.94 in 10.0 mi North 4.6 mph - N/A   Scattered Clouds
8:53 PM 63.0 °F - 30.0 °F 29% 29.91 in 10.0 mi Calm Calm - N/A   Scattered Clouds
9:53 PM 59.0 °F - 32.0 °F 36% 29.92 in 10.0 mi Calm Calm - N/A   Partly Cloudy
10:53 PM 55.0 °F - 33.1 °F 43% 29.92 in 10.0 mi SSE 5.8 mph - N/A   Partly Cloudy
11:53 PM 55.0 °F - 30.0 °F 38% 29.91 in 10.0 mi ESE 6.9 mph - N/A   Partly Cloudy